Weather History for MMMT - April, 2013

Change the Weather History Date:

Tuesday, April 30, 2013

  Actual Average Record
Temperature  
Mean Temperature 78 °F -  
Max Temperature 93 °F 88 °F 100 °F (2005)
Min Temperature 64 °F 74 °F 60 °F (2012)
Cooling Degree Days 14    
Growing Degree Days 28 (Base 50)    
Moisture  
Dew Point 65 °F    
Average Humidity 60    
Maximum Humidity 97    
Minimum Humidity 41    
Precipitation  
Precipitation 0.00 in - - ()
Sea Level Pressure  
Sea Level Pressure 29.74 in    
Wind  
Wind Speed 8 mph ()    
Max Wind Speed 23 mph    
Max Gust Speed 34 mph    
Visibility 7.5 miles    
Events      
Averages and records for this station are not official NWS values.
T = Trace of Precipitation, MM = Missing Value Source: Averaged Metar Reports

Daily Weather History Graph

Daily Weather History Graph

Search for Another Location

Airport or City:

Trip Planner

Search our weather history database for the weather conditions in past years. The results will help you decide how hot, cold, wet, or windy it might be!

Date:

Astronomy

Apr. 30, 2013 Rise Set
Actual Time 6:51 AM CDT 7:39 PM CDT
Civil Twilight 6:29 AM CDT 8:02 PM CDT
Nautical Twilight 6:02 AM CDT 8:28 PM CDT
Astronomical Twilight 5:35 AM CDT 8:56 PM CDT
Moon No Moon Rise 11:29 AM CDT (4/30)
Length of Visible Light 13h 32m
Length of Day
12h 47m
Waning Gibbous, 70% of the Moon is Illuminated
Apr 30
Waning Gibbous
May 2
Last Quarter
May 9
New
May 17
First Quarter
May 24
Full

Hourly Weather History & Observations

Time (CDT) Temp. Heat Index Dew Point Humidity Pressure Visibility Wind Dir Wind Speed Gust Speed Precip Events Conditions
1:00 AM 67 °F - 66 °F 97% 29.80 in - NNE 2.2 mph - -  
4:00 AM 66 °F - 64 °F 93% 29.79 in - Calm Calm - -  
5:00 AM 78.8 °F - 64.4 °F 61% 29.70 in 10.0 mi Calm Calm - N/A   Mostly Cloudy
5:45 AM 77.0 °F - 64.4 °F 65% 29.69 in 10.0 mi West 11.5 mph - N/A   Mostly Cloudy
6:45 AM 77.0 °F - 64.4 °F 65% 29.93 in 10.0 mi SW 11.5 mph - N/A   Mostly Cloudy
7:00 AM 64 °F - 61 °F 87% 29.79 in - NNE 2.2 mph - -  
7:45 AM 77.0 °F - 64.4 °F 65% 29.72 in 10.0 mi SW 11.5 mph - N/A   Mostly Cloudy
8:45 AM 78.8 °F - 64.4 °F 61% 29.73 in 5.0 mi South 11.5 mph - N/A   Haze
10:00 AM 70 °F - 60 °F 62% 29.78 in - North 2.2 mph - -  
10:00 AM 84.2 °F 85.6 °F 64.4 °F 51% 29.95 in 5.0 mi East 11.5 mph - N/A   Haze
10:45 AM 84.2 °F 85.6 °F 64.4 °F 51% 29.74 in 6.0 mi South 11.5 mph - N/A   Partly Cloudy
11:45 AM 89.6 °F 94.7 °F 69.8 °F 52% 29.71 in 7.0 mi South 11.5 mph 23.0 mph N/A   Clear
12:45 PM 89.6 °F 94.7 °F 69.8 °F 52% 29.91 in 7.0 mi WSW 23.0 mph 34.5 mph N/A   Mostly Cloudy
1:00 PM 79 °F - 66 °F 55% 29.68 in - ESE 6.7 mph - -  
1:47 PM 93.2 °F 96.2 °F 66.2 °F 41% 29.66 in 7.0 mi South 23.0 mph 34.5 mph N/A   Clear
2:56 PM 93.2 °F 96.2 °F 66.2 °F 41% 29.63 in 7.0 mi South 23.0 mph 34.5 mph N/A   Clear
3:48 PM 93.2 °F 96.2 °F 66.2 °F 41% 29.84 in 7.0 mi South 23.0 mph 34.5 mph N/A   Clear
4:00 PM 82 °F - 67 °F 52% 29.62 in - SSE 4.5 mph - -  
4:50 PM 93.2 °F 96.2 °F 66.2 °F 41% 29.60 in 7.0 mi South 23.0 mph 34.5 mph N/A   Clear
5:48 PM 91.4 °F 94.0 °F 66.2 °F 43% 29.60 in 7.0 mi South 23.0 mph 34.5 mph N/A   Clear
6:56 PM 91.4 °F 94.0 °F 66.2 °F 43% 29.82 in 7.0 mi South 23.0 mph 34.5 mph N/A   Clear
7:00 PM 75 °F - 65 °F 64% 29.68 in - ESE 4.5 mph - -  
10:00 PM 70 °F - 69 °F 94% 29.76 in - NNW 2.2 mph - -